• METAR

    LHBP Budapest Liszt Ferenc repülőtér METAR

    LHBP 131900Z 26005KT 9999 FEW047 SCT080 BKN200 11/09 Q1003 NOSIG

    QNH légnyomás:1003hpa
    Hőmérséklet/temperature: 11°C
    Harmatpont/Dew Point Temp: 9°C

    LHDC Debreceni repülőtér METAR

    LHDC 131845Z AUTO 15009KT 120V190 9000 NSC 16/10 Q1004 NOSIG

    QNH légnyomás:1004hpa
    Hőmérskélet/temperature: 16°C
    Harmatpont/Dew Point Temp: 10°C

    LHPR Győr-pér repülőtér METAR

    LHPR 131845Z AUTO 29011KT 9999 -SHRA BKN012 BKN033 05/04 Q1006

    QNH légnyomás:1006hpa
    Hőmérskélet/temperature: 5°C
    Harmatpont/Dew Point Temp: 4°C

    lhsm Sármellék repülőtér METAR

    LHSM 131845Z AUTO 01010KT 340V040 9999 -DZ FEW011 OVC026 05/04 Q1006

    QNH légnyomás:1006hpa
    Hőmérskélet/temperature: 5°C
    Harmatpont/Dew Point Temp: 4°C

    lhpp Pécs-pogány repülőtér METAR

    LHPP 131745Z 25003KT 9999 SCT030 OVC083 14/11 Q1002

    QNH légnyomás:1002hpa
    Hőmérskélet/temperature: 14°C
    Harmatpont/Dew Point Temp: 11°C

    LHKE Kecskemét repülőtér METAR

    LHKE 131915Z 19010KT CAVOK 16/10 Q1003 TEMPO -RA RMK BLU

    QNH légnyomás:1003hpa
    Hőmérskélet/temperature: 16°C
    Harmatpont/Dew Point Temp: 10°C

    LHSN Szolnok repülőtér METAR

    LHSN 131915Z 18014KT CAVOK 16/10 Q1003 NOSIG RMK BLU

    QNH légnyomás:1003hpa
    Hőmérskélet/temperature: 16°C
    Harmatpont/Dew Point Temp: 10°C

    LHUD szeged repülőtér METAR

    LHUD 032345Z 35004KT CAVOK 18/13 Q1019

    QNH légnyomás:1019hpa
    Hőmérskélet/temperature: 18°C
    Harmatpont/Dew Point Temp: 13°C

  • TÉRKÉPEK

    Felhőkép

    Széltérkép

    Hőtérkép

    radarkép

    map

    map

  • Műholdképek

    Magyarország műholdkép

    Europa műholdkép

    Europa szinoptikus térkép

  • ELTE ELŐREJELZÉS (2 NAP LHBP)

    2 napos légnyomás előrejelzés Budapest LHBP

    2 napos szél előrejelzés Budapest LHBP

    2 napos termik trigger előrejelzés Budapest LHBP

    2 napos felhőzet előrejelzés Budapest LHBP

    2 napos thermal index profile előrejelzés Budapest LHBP

    2 napos átlag emelés előrejelzés Budapest LHBP

    2 napos felhő alap előrejelzés Budapest LHBP

    2 napos hőmérséklet advekció előrejelzés Budapest LHBP

  • VILLÁMRADAR

  • ELŐREJELZÉS

  • WINDFINDER ELŐREJELZÉS

  • RIASZTÁS - VÉSZJELZÉS

Repülésmeteorológia, aktuális időjárási helyzet és előrejelzés

Repülésmeteorológia, várható időjárás jelentések, előrejelzések és riasztások. METAR, TAF adatok, aktuális időjárás helyzetek és térképek.

A meteorológia kialakulásában és fejlődésében kiemelt szerep jutott a repülésnek, illetve a repülés technikai fejlődésének. A repülésmeteorológia elsődlegesen a repülés biztonságát, másodlagosan a repülés gazdaságosságát hivatott szolgálni. Eleinte a katonai repülőgépeknek, később a polgári repülésnek, ma már a sportrepülő pilótáknak, és a mezőgazdasági pilótáknak is egyaránt szükségük van a naprakész meteorológiai információkra.

Repülésmeteorológia oldalunkon összegyűjtöttük a legnépszerűbb és legjobb időjárás oldalak hivatkozásait, hogy repülés előtt vagy akár közben minden fontos forrást egyszerűen és gyorsan megtalálj. Magyarország várható időjárása, légállapoti diagramok, termik előrejelzés, METAR adatok, vészjelzések és figyelmeztetések. A képernyő szélén közvetlenül pedig pozíciód aktuális időjárási paramétereit is megtalálod.

JOGI NYILATKOZAT

Az oldal használatával a látogató elfogadja az alábbi felhasználási feltételeket:

Az oldalon feltüntetett repülésmeteorológia információkat mindenki csak saját felelősségre használhatja. A feltüntetett külső forrásokból származó információk pontosságáért és tartalmáért, valamint az esetlegesen ebből adódó bármilyen káresemény kapcsán a FLYTIME.HU nem vállal felelősséget!